COSMOS 1275 DEB, 39966

Orbit data source: Space-Track

COSMOS 1275 DEB, 39966 is space debris in LEO originally from a launch on Thu, 04 Jun 1981 UTC launched from the Plesetsk Missile And Space Complex (PKMTR). Debris objects in space refer to the collection of defunct objects orbiting the Earth. Examples of debris include non-operational satellites, rocket bodies, and fragments generated from explosions, collisions, or faulty payload assembly.

Loading next visibility...
Identifier
39966, 1981-053PC
Orbit
LEO
Country
Flag of CISCIS
Related business
Manufacturer
Unknown
Mission
Spacecraft
Bus & Motor
Unknown
Mass
Unknown
Launch date (UTC)
1981-06-04 (44 years ago)
Launch vehicle
Unknown
Launch site
Plesetsk Missile And Space Complex (PKMTR)
Object type
Payload
Rocket body
Debris
Shape & HBR
Unknown shape, 0.1 m
Radar Cross Section
Small (<0.1 m²)

Expand to show TLE details & history
Last TLE update: 1 day ago

TLE from 1 day ago
0 COSMOS 1275 DEB
1 39966U 81053PC  25293.49272171  .00003627  00000-0  23221-2 0  9994
2 39966  82.7101 191.5183 0043110 352.2344 126.9516 14.02682081579513
Epoch: 2025-10-20T11:49Z
TLE epoch observation values (Epoch: 2025-10-20T11:49:31.155Z)
Latitude
59.70931°
Longitude
152.36141°
Altitude
913.579 km
Speed
7.391 km/s
True Right ascension
23h 55m 44s
True Declination
59° 33' 45"
Sunlit
Object was in full shadow at epoch
Visualization orbit readout
Latitude
Unknown
Longitude
Unknown
Altitude
Unknown
Speed
Unknown
Apparent Right ascension
Unknown
Apparent Declination
Unknown
Sunlit
N/A
Visualization observer readout
Local Sidereal Time
07:00:53
Azimuth
Unknown
Elevation
Unknown
Doppler factor
Unknown
Orbital elements
Apogee altitude
912.939 km
Perigee altitude
850.345 km
Semi-major axis
7,259.779 km
Eccentricity
0.00431
Inclination
82.7101°
RAAN
191.5183°
Arg. of periapsis
352.2344°
True anomaly
127.3451°
Mean anomaly
126.9516°
Eccentric anomaly
127.14848°
Mean motion
3.5088 °/min
Orbital period
102.6 mins
BSTAR
0.0023221

Documentation

Showing up to 5 results
|